• In Czech Republic
  • List of Countries
  • For 7 days
  • Water Temperature
  • Satellite Maps
  • Weather Map
  • Weather Widgets
  • user-avatar
    Login

    Hourly Weather Gurevka

    Today, 23 July, Monday

    Time Temperature Precipitation Wind Pressure Humidity
    00:00 +20°C° 0.7 mm 4 mps 740 mmHg 94%
    01:00 +19°C° 0.5 mm 4 mps 740 mmHg 94%
    02:00 +19°C° 0.5 mm 4 mps 740 mmHg 95%
    03:00 +19°C° 0 mm 3 mps 740 mmHg 96%
    04:00 +19°C° 0.4 mm 3 mps 740 mmHg 95%
    05:00 +19°C° 0.4 mm 4 mps 740 mmHg 95%
    06:00 +19°C° 0.4 mm 4 mps 740 mmHg 95%
    07:00 +19°C° 0.2 mm 4 mps 740 mmHg 93%
    08:00 +20°C° 0.2 mm 4 mps 740 mmHg 90%
    09:00 +21°C° 0.2 mm 4 mps 740 mmHg 88%
    10:00 +22°C° 0.1 mm 4 mps 740 mmHg 84%
    11:00 +23°C° 0.1 mm 4 mps 740 mmHg 80%
    12:00 +26°C° 0.1 mm 4 mps 740 mmHg 76%
    13:00 +26°C° 0.6 mm 4 mps 740 mmHg 74%
    14:00 +27°C° 0.6 mm 4 mps 740 mmHg 72%
    15:00 +27°C° 0.6 mm 4 mps 740 mmHg 70%
    16:00 +27°C° 0.7 mm 4 mps 740 mmHg 73%
    17:00 +27°C° 0.7 mm 3 mps 740 mmHg 76%
    18:00 +26°C° 0.7 mm 3 mps 740 mmHg 79%
    19:00 +25°C° 0.5 mm 3 mps 740 mmHg 82%
    20:00 +24°C° 0.5 mm 3 mps 740 mmHg 85%
    21:00 +23°C° 0.5 mm 2 mps 740 mmHg 89%
    22:00 +21°C° 0.1 mm 2 mps 740 mmHg 90%
    23:00 +21°C° 0.1 mm 2 mps 741 mmHg 91%

    Tomorrow, 24 July, Tuesday

    Time Temperature Precipitation Wind Pressure Humidity
    00:00 +20°C° 0.1 mm 2 mps 741 mmHg 91%
    01:00 +20°C° 0.1 mm 2 mps 741 mmHg 92%
    02:00 +20°C° 0.1 mm 2 mps 741 mmHg 93%
    03:00 +19°C° 0.1 mm 2 mps 741 mmHg 93%
    04:00 +20°C° 0 mm 2 mps 741 mmHg 93%
    05:00 +20°C° 0 mm 3 mps 742 mmHg 92%
    06:00 +20°C° 0 mm 3 mps 742 mmHg 92%
    07:00 +22°C° 0.1 mm 3 mps 742 mmHg 86%
    08:00 +25°C° 0.1 mm 3 mps 742 mmHg 81%
    09:00 +26°C° 0.1 mm 3 mps 742 mmHg 75%
    10:00 +27°C° 0.7 mm 3 mps 743 mmHg 70%
    11:00 +28°C° 0.7 mm 3 mps 743 mmHg 66%
    12:00 +29°C° 0.7 mm 4 mps 743 mmHg 61%
    13:00 +29°C° 0.8 mm 4 mps 743 mmHg 64%
    14:00 +28°C° 0.8 mm 4 mps 743 mmHg 66%
    15:00 +28°C° 0.8 mm 5 mps 743 mmHg 69%
    16:00 +27°C° 0.7 mm 5 mps 743 mmHg 74%
    17:00 +26°C° 0.7 mm 5 mps 744 mmHg 79%
    18:00 +23°C° 0.7 mm 5 mps 744 mmHg 84%
    19:00 +22°C° 0.1 mm 5 mps 744 mmHg 86%
    20:00 +21°C° 0.1 mm 4 mps 744 mmHg 88%
    21:00 +20°C° 0.1 mm 4 mps 744 mmHg 89%
    22:00 +19°C° 0 mm 4 mps 745 mmHg 89%
    23:00 +19°C° 0 mm 3 mps 745 mmHg 88%

    Day after tomorrow, 25 July, Wednesday

    Time Temperature Precipitation Wind Pressure Humidity
    00:00 +18°C° 0 mm 3 mps 745 mmHg 88%
    01:00 +18°C° 0 mm 3 mps 745 mmHg 86%
    02:00 +17°C° 0 mm 3 mps 745 mmHg 85%
    03:00 +17°C° 0 mm 4 mps 744 mmHg 83%
    04:00 +17°C° 0.2 mm 4 mps 744 mmHg 82%
    05:00 +17°C° 0.2 mm 4 mps 744 mmHg 81%
    06:00 +17°C° 0.2 mm 4 mps 744 mmHg 79%
    07:00 +17°C° 0.2 mm 4 mps 745 mmHg 80%
    08:00 +17°C° 0.2 mm 5 mps 745 mmHg 80%
    09:00 +17°C° 0.2 mm 5 mps 745 mmHg 80%
    10:00 +19°C° 0.2 mm 5 mps 745 mmHg 81%
    11:00 +20°C° 0.2 mm 4 mps 745 mmHg 82%
    12:00 +21°C° 0.2 mm 4 mps 745 mmHg 84%
    13:00 +22°C° 0.1 mm 4 mps 745 mmHg 81%
    14:00 +25°C° 0.1 mm 4 mps 745 mmHg 78%
    15:00 +26°C° 0.1 mm 5 mps 745 mmHg 75%
    16:00 +26°C° 0.4 mm 5 mps 745 mmHg 75%
    17:00 +26°C° 0.4 mm 4 mps 745 mmHg 75%
    18:00 +26°C° 0.4 mm 4 mps 745 mmHg 75%
    19:00 +23°C° 0 mm 4 mps 745 mmHg 75%
    20:00 +22°C° 0 mm 4 mps 745 mmHg 76%
    21:00 +21°C° 0 mm 3 mps 745 mmHg 76%
    22:00 +21°C° 0.1 mm 4 mps 746 mmHg 76%
    23:00 +20°C° 0.1 mm 4 mps 746 mmHg 76%

    26 July, Thursday

    Time Temperature Precipitation Wind Pressure Humidity
    00:00 +20°C° 0.1 mm 4 mps 746 mmHg 75%
    01:00 +20°C° 0.1 mm 4 mps 746 mmHg 76%
    02:00 +19°C° 0.1 mm 4 mps 746 mmHg 77%
    03:00 +19°C° 0.1 mm 4 mps 745 mmHg 77%
    04:00 +19°C° 0.1 mm 4 mps 746 mmHg 78%
    05:00 +19°C° 0.1 mm 4 mps 746 mmHg 79%
    06:00 +19°C° 0.1 mm 4 mps 746 mmHg 80%
    07:00 +21°C° 0 mm 4 mps 746 mmHg 75%
    08:00 +23°C° 0 mm 5 mps 746 mmHg 69%
    09:00 +26°C° 0 mm 5 mps 747 mmHg 64%
    10:00 +27°C° 0 mm 5 mps 747 mmHg 61%
    11:00 +28°C° 0 mm 6 mps 747 mmHg 59%
    12:00 +30°C° 0 mm 6 mps 747 mmHg 56%
    13:00 +30°C° 0 mm 6 mps 747 mmHg 55%
    14:00 +32°C° 0 mm 6 mps 747 mmHg 55%
    15:00 +32°C° 0 mm 7 mps 747 mmHg 54%
    16:00 +32°C° 0 mm 6 mps 747 mmHg 58%
    17:00 +30°C° 0 mm 5 mps 747 mmHg 62%
    18:00 +30°C° 0 mm 4 mps 747 mmHg 65%
    19:00 +28°C° 0 mm 4 mps 747 mmHg 68%
    20:00 +26°C° 0 mm 4 mps 748 mmHg 70%
    21:00 +25°C° 0 mm 4 mps 748 mmHg 72%
    22:00 +23°C° 0 mm 4 mps 748 mmHg 73%
    23:00 +22°C° 0 mm 4 mps 748 mmHg 74%

    27 July, Friday

    Time Temperature Precipitation Wind Pressure Humidity
    00:00 +22°C° 0 mm 4 mps 748 mmHg 75%
    01:00 +22°C° 0 mm 4 mps 748 mmHg 74%
    02:00 +21°C° 0 mm 4 mps 749 mmHg 74%
    03:00 +21°C° 0 mm 4 mps 749 mmHg 74%
    04:00 +21°C° 0 mm 4 mps 749 mmHg 75%
    05:00 +21°C° 0 mm 4 mps 749 mmHg 76%
    06:00 +21°C° 0 mm 4 mps 749 mmHg 78%
    07:00 +22°C° 0 mm 4 mps 749 mmHg 74%
    08:00 +23°C° 0 mm 5 mps 749 mmHg 70%
    09:00 +26°C° 0 mm 5 mps 749 mmHg 66%
    10:00 +27°C° 0 mm 5 mps 749 mmHg 63%
    11:00 +28°C° 0 mm 5 mps 749 mmHg 60%
    12:00 +28°C° 0 mm 5 mps 749 mmHg 57%
    13:00 +29°C° 0 mm 5 mps 749 mmHg 57%
    14:00 +29°C° 0 mm 5 mps 749 mmHg 56%
    15:00 +29°C° 0 mm 5 mps 749 mmHg 55%
    16:00 +29°C° 0 mm 5 mps 749 mmHg 59%
    17:00 +28°C° 0 mm 4 mps 749 mmHg 64%
    18:00 +27°C° 0 mm 4 mps 749 mmHg 68%
    19:00 +26°C° 0 mm 3 mps 749 mmHg 68%
    20:00 +25°C° 0 mm 3 mps 749 mmHg 67%
    21:00 +22°C° 0 mm 3 mps 749 mmHg 67%
    22:00 +22°C° 0 mm 3 mps 748 mmHg 67%
    23:00 +22°C° 0 mm 3 mps 748 mmHg 67%

    28 July, Saturday

    Time Temperature Precipitation Wind Pressure Humidity
    00:00 +22°C° 0 mm 4 mps 748 mmHg 68%
    01:00 +22°C° 0 mm 4 mps 748 mmHg 68%
    02:00 +22°C° 0 mm 4 mps 748 mmHg 69%
    03:00 +22°C° 0 mm 3 mps 748 mmHg 70%
    04:00 +22°C° 0 mm 3 mps 748 mmHg 71%
    05:00 +21°C° 0 mm 3 mps 748 mmHg 71%
    06:00 +21°C° 0 mm 3 mps 748 mmHg 72%
    07:00 +22°C° 0 mm 3 mps 748 mmHg 69%
    08:00 +24°C° 0 mm 3 mps 748 mmHg 66%
    09:00 +25°C° 0 mm 4 mps 748 mmHg 63%
    10:00 +27°C° 0 mm 4 mps 748 mmHg 59%
    11:00 +28°C° 0 mm 4 mps 748 mmHg 55%
    12:00 +29°C° 0 mm 4 mps 748 mmHg 52%
    13:00 +29°C° 0 mm 4 mps 747 mmHg 52%
    14:00 +30°C° 0 mm 4 mps 747 mmHg 52%
    15:00 +30°C° 0 mm 4 mps 747 mmHg 52%
    16:00 +29°C° 0 mm 4 mps 747 mmHg 55%
    17:00 +29°C° 0 mm 3 mps 747 mmHg 57%
    18:00 +28°C° 0 mm 3 mps 747 mmHg 60%
    19:00 +26°C° 0 mm 3 mps 747 mmHg 64%
    20:00 +25°C° 0 mm 3 mps 747 mmHg 68%
    21:00 +22°C° 0 mm 3 mps 747 mmHg 71%
    22:00 +22°C° 0 mm 3 mps 747 mmHg 72%
    23:00 +21°C° 0 mm 3 mps 747 mmHg 74%
    Show more